Theta_e
312 313 312 315 313 311 316 320 321 318 318 322 322 322 321 315 312 320 325 331 331 331 330 329 332 331 327 325 326 326 327 327 325 326 321 317 319 317 319 321 325 326 327 329
308 312 313 313 314 314 315 319 319 317 318 321 322 323 320 316 312 308 311 320 327 329 331 332 331 331 333 333 334 330 327 329 329 329 329 325 322 322 323 325 328 328 328 330
311 312 312 312 314 315 311 315 317 318 315 316 320 319 315 314 311 307 307 308 317 324 329 330 333 332 333 335 336 331 328 331 330 333 333 332 330 329 328 328 330 330 330 330
309 311 312 312 314 315 316 313 315 316 316 319 314 321 311 311 311 306 305 306 308 316 324 327 330 332 333 335 335 331 330 331 332 332 332 332 331 331 329 329 330 330 330 329
307 310 310 310 312 313 314 313 313 313 312 315 316 317 315 311 311 309 306 306 307 309 313 326 325 328 330 331 332 333 333 333 332 332 331 331 331 331 332 331 330 330 329 329
307 308 308 308 310 311 310 313 313 312 313 316 316 316 315 313 312 309 307 307 308 309 309 309 315 322 322 323 328 329 329 329 328 328 327 325 329 328 326 333 331 330 328 327
305 306 307 308 310 309 311 311 313 311 307 314 314 316 314 310 309 306 306 307 309 309 310 310 309 309 308 311 314 315 317 319 321 320 322 327 328 331 331 331 330 329 328 326
309 306 307 307 309 310 310 310 310 311 314 314 312 315 313 307 308 309 308 307 308 309 309 310 310 310 309 309 308 308 309 311 312 313 312 313 316 320 322 323 322 319 315 312
310 309 307 308 308 308 310 310 310 310 303 310 309 307 308 308 306 306 307 308 309 309 309 309 309 310 310 310 310 309 309 309 310 311 311 311 311 311 311 311 310 310 310 311
308 310 308 308 307 307 309 308 308 306 307 311 310 307 308 307 307 306 305 306 307 308 308 309 309 309 309 310 310 310 310 310 310 310 310 310 311 311 312 313 314 314 313 313
307 309 308 306 308 309 307 308 308 307 309 311 312 308 304 307 306 305 305 306 306 307 307 307 308 309 309 310 310 309 309 309 309 309 310 310 310 310 310 309 309 309 309 310
306 307 304 309 306 306 308 309 308 306 307 308 307 309 305 305 306 305 304 306 307 307 307 307 307 307 309 309 309 307 307 308 308 307 307 307 306 307 306 306 306 306 306 306
307 304 297 302 304 305 307 308 308 306 306 309 307 307 304 305 304 304 304 305 304 303 303 304 306 307 307 307 308 307 306 306 306 305 305 305 305 305 305 305 305 305 305 305
305 305 300 302 304 305 307 308 308 307 304 308 308 306 304 305 303 303 303 303 302 301 301 301 302 302 303 306 307 307 306 305 304 304 304 304 304 304 304 304 304 304 304 304
301 298 299 301 301 303 305 306 306 309 307 305 307 308 306 307 303 302 304 302 302 301 300 300 300 300 301 302 302 304 307 306 305 304 304 304 304 304 303 304 304 304 304 303
298 296 295 294 298 297 300 302 303 304 307 307 307 308 304 304 302 301 303 302 301 300 300 300 300 300 300 300 300 302 302 303 307 306 305 305 305 304 304 303 303 303 303 303
298 292 289 291 293 291 292 294 299 301 302 304 306 305 302 300 300 301 302 300 300 300 300 300 300 300 300 300 300 300 301 302 303 304 306 306 305 305 305 304 303 303 303 303
295 290 285 289 286 290 295 294 296 298 299 300 301 301 301 299 301 301 300 300 300 299 299 299 299 300 300 300 300 300 300 301 302 302 303 305 306 305 304 303 303 304 303 303
297 295 289 291 281 291 295 297 297 299 298 297 298 297 298 300 300 300 301 300 300 300 299 299 299 300 300 300 300 300 301 301 302 302 302 303 304 305 304 303 303 302 302 302
297 295 292 286 286 288 293 298 298 296 293 296 298 298 299 299 295 293 299 299 299 300 299 299 299 299 299 300 300 301 301 301 302 302 302 302 303 303 304 303 302 302 301 300
292 291 292 290 285 290 293 297 298 293 294 298 300 300 299 296 298 299 299 299 299 299 299 299 299 299 299 300 300 301 301 301 301 302 302 303 303 303 302 302 301 301 300 299
296 293 294 288 286 293 296 296 298 297 298 299 299 299 299 299 299 299 299 299 298 299 299 299 299 299 299 299 300 301 301 301 300 301 302 302 302 301 301 301 300 299 300 300
294 295 294 294 295 296 297 298 298 298 299 299 299 299 299 299 299 299 299 299 298 298 298 299 299 299 298 299 300 301 300 299 298 299 301 301 300 298 297 297 297 297 297 298
294 294 294 296 296 296 298 299 299 299 300 299 299 299 299 299 299 299 299 299 299 299 298 298 298 298 298 299 301 300 299 297 298 297 298 298 298 299 300 300 301 301 301 298
294 294 294 293 295 297 298 298 299 299 299 299 299 299 299 299 299 299 298 298 298 298 298 298 298 298 299 299 301 300 299 299 299 300 298 298 298 298 298 298 297 298 299 298
295 294 295 295 297 298 298 299 299 299 299 299 299 299 299 299 299 299 299 299 298 298 298 298 298 298 298 300 301 300 300 300 299 299 299 298 298 298 298 297 297 297 297 297
Wind_Speed
1 3 6 7 4 5 6 13 8 5 3 2 8 12 7 21 21 8 3 14 19 20 19 23 30 30 29 29 29 27 24 20 21 21 22 24 26 24 24 22 18 18 19 18
4 9 12 13 6 2 9 11 6 8 7 3 7 6 4 9 11 17 17 5 7 12 13 12 19 26 32 25 26 30 27 22 20 20 20 21 20 20 19 18 18 17 16 17
3 3 7 9 5 3 5 4 3 5 6 13 6 4 6 7 16 19 20 12 11 3 4 6 12 17 31 30 22 24 26 23 21 20 19 20 20 21 20 18 19 18 19 19
2 5 4 7 4 8 5 11 4 9 3 4 4 2 2 7 15 9 19 22 20 13 5 3 2 8 24 29 22 23 26 26 26 24 24 24 22 20 16 17 18 16 16 16
4 4 5 5 6 6 3 8 5 2 6 5 5 4 2 3 6 12 17 19 17 16 12 4 5 3 3 11 16 18 19 23 23 22 22 23 24 20 17 19 19 20 20 20
2 4 2 0 2 4 7 5 5 3 2 3 2 2 2 1 1 9 16 19 17 17 13 9 3 1 3 3 5 11 13 13 15 15 17 19 25 24 26 23 20 22 21 19
6 4 5 4 4 2 7 6 3 4 4 2 2 3 0 2 5 7 9 14 15 14 12 11 11 7 2 4 4 6 9 12 17 18 20 21 22 23 20 21 22 22 22 21
4 6 6 6 3 1 2 3 2 2 1 1 4 2 2 5 6 4 10 10 14 15 14 15 14 12 10 7 3 5 9 12 13 13 13 13 15 17 18 18 18 18 18 19
5 3 4 3 1 1 4 3 3 4 2 3 3 2 3 5 3 4 9 13 17 16 14 15 14 13 13 10 8 6 3 4 6 8 10 11 11 11 12 12 13 13 12 11
3 4 2 4 4 3 1 2 3 3 2 3 3 3 2 1 4 5 8 12 14 14 14 14 12 11 10 10 10 9 7 4 2 3 4 5 6 6 6 5 5 6 6 6
3 1 5 3 5 3 5 3 4 4 3 2 3 2 3 2 3 5 8 12 15 16 17 16 14 11 9 8 8 8 8 7 5 2 2 2 2 3 4 4 4 4 4 4
2 2 2 1 4 3 2 1 2 3 4 2 2 0 4 4 3 5 11 15 17 17 17 16 16 14 12 11 10 9 8 7 6 6 6 5 6 6 5 5 4 4 3 4
1 1 3 7 5 4 5 4 3 4 3 2 3 3 2 9 7 8 10 12 15 16 16 15 15 16 15 12 10 10 10 9 8 7 5 4 6 6 5 5 5 5 5 5
3 1 4 5 2 2 2 3 4 2 3 2 1 3 3 6 5 6 8 11 13 15 17 17 18 18 16 15 15 12 9 8 9 9 8 7 6 6 6 7 6 5 5 4
3 2 1 1 4 2 1 1 3 2 0 3 2 2 5 2 2 2 7 8 10 13 16 17 18 19 19 17 16 13 12 11 9 9 11 11 10 10 9 9 8 8 8 7
2 2 2 3 4 5 2 3 1 2 2 2 0 2 5 3 3 5 7 7 10 12 13 15 16 17 19 20 19 17 15 13 12 13 11 10 13 15 14 13 12 12 11 9
3 3 3 4 4 5 5 4 5 2 2 4 3 5 1 3 6 4 8 9 9 10 12 13 15 17 17 18 18 19 19 17 15 15 13 15 15 15 15 15 15 14 13 11
4 3 2 2 4 2 6 2 2 5 4 6 2 3 2 2 4 9 8 6 8 13 14 15 16 16 16 16 16 16 17 18 17 15 14 16 17 17 17 18 17 15 15 15
3 4 3 3 2 5 4 1 4 4 2 2 2 3 2 4 8 3 1 9 11 15 18 18 18 18 17 17 17 17 16 16 17 17 15 14 16 19 19 20 21 18 17 16
4 6 3 3 4 5 4 1 2 3 3 2 5 4 9 9 2 3 7 11 13 14 16 17 17 17 17 17 18 19 19 18 16 17 17 16 15 17 19 18 19 19 17 15
2 2 4 2 2 7 8 7 3 6 5 3 6 9 8 3 4 3 12 15 15 18 18 17 15 15 17 17 18 19 19 19 18 16 16 15 13 13 14 16 16 15 15 12
5 5 3 3 2 7 9 5 5 4 6 4 2 1 4 4 12 15 18 18 17 17 17 17 15 17 19 18 17 16 16 17 17 16 14 13 10 8 9 11 12 13 12 12
2 6 5 8 6 4 10 2 8 6 2 1 6 10 12 14 16 17 18 17 16 16 18 19 21 23 21 18 15 15 15 13 12 11 10 7 5 3 2 3 8 9 7 6
4 7 3 3 4 14 12 11 11 8 10 10 7 6 9 14 15 18 20 20 21 22 23 23 24 24 22 17 14 14 12 10 7 7 5 2 1 1 1 4 6 11 14 12
4 11 6 4 6 7 13 15 13 11 9 9 9 13 16 18 20 20 22 21 23 24 24 25 24 24 21 16 15 12 11 10 8 8 3 2 2 3 4 5 8 9 8 8
10 6 5 5 9 7 5 6 5 10 12 13 17 19 17 18 18 21 23 22 22 23 22 23 22 21 18 17 17 15 14 13 12 11 9 10 11 11 13 13 13 14 14 15
Wind_Direction
317 300 3 17 120 282 272 251 142 71 62 113 176 137 357 356 11 40 128 223 213 224 233 224 221 216 214 219 228 230 229 227 224 227 229 228 234 239 242 246 253 256 261 262
351 8 353 342 44 231 269 121 105 77 79 80 147 182 351 358 337 35 29 20 224 243 244 237 227 222 216 219 228 228 230 231 230 231 234 236 241 245 249 253 259 267 262 259
45 295 12 360 34 11 3 22 76 110 90 47 81 64 15 320 343 37 44 38 62 45 238 236 225 220 212 222 238 225 228 233 233 241 240 238 239 243 246 251 253 255 263 265
25 308 338 354 345 356 20 339 90 117 52 125 0 134 48 355 323 351 21 23 40 41 79 68 303 232 214 223 228 223 227 230 232 233 236 236 240 245 254 253 261 267 261 261
293 329 358 21 339 348 5 322 20 121 100 122 16 87 344 27 306 349 349 8 32 41 35 48 62 50 201 219 233 232 235 242 243 249 249 245 245 251 254 262 263 265 264 267
295 306 76 61 7 19 322 336 46 44 76 65 77 106 312 109 292 320 327 354 29 40 45 58 67 299 336 289 242 237 256 257 266 253 257 268 259 258 259 258 262 262 263 262
337 339 329 15 25 87 30 23 15 10 31 120 85 63 334 294 296 282 290 349 16 35 41 49 63 80 200 233 229 235 237 242 245 252 252 248 247 236 243 253 256 261 263 262
10 346 0 350 46 320 351 93 124 199 39 66 354 73 88 188 200 312 342 15 30 33 31 30 34 33 34 31 356 271 251 247 248 247 246 244 245 249 252 254 256 258 261 264
346 321 331 329 335 66 317 50 172 104 25 60 343 33 42 293 275 12 29 43 31 26 29 20 24 27 23 19 12 9 349 286 268 260 255 254 257 258 257 260 262 261 258 257
5 307 358 305 342 353 43 231 41 20 55 67 16 24 130 58 40 25 26 42 44 38 37 31 28 22 12 8 4 2 357 348 329 282 271 266 263 258 255 245 237 241 243 249
18 35 295 52 21 342 350 22 56 114 111 132 124 328 225 106 22 35 37 49 50 43 36 29 27 22 15 4 355 351 350 339 328 295 217 219 233 228 227 233 230 238 248 259
342 12 300 238 279 278 262 88 96 102 335 36 80 298 87 44 347 41 48 54 58 53 45 39 37 32 22 10 360 352 342 329 319 314 303 269 221 207 216 223 221 229 242 255
310 4 4 348 2 12 32 353 65 92 90 59 103 200 193 29 31 51 59 52 53 49 46 40 33 31 29 23 14 3 347 333 323 310 300 298 304 296 268 231 227 228 227 248
22 31 154 193 208 266 11 7 13 65 98 159 174 152 216 33 62 73 62 71 63 56 49 45 39 32 23 16 12 3 353 338 325 315 303 291 285 279 272 269 259 250 251 254
75 133 56 335 341 335 330 347 10 57 157 136 158 142 165 42 163 104 80 79 63 44 38 32 28 25 21 18 13 1 350 332 311 305 303 298 289 281 274 269 266 260 250 243
49 152 77 319 352 15 317 260 197 306 258 272 321 285 207 154 112 100 101 84 59 41 29 19 13 10 6 1 1 356 350 332 318 301 288 287 293 294 288 276 262 256 257 258
72 118 67 268 350 337 349 224 186 212 204 150 179 230 104 62 34 78 111 86 60 34 15 4 0 357 353 348 342 338 338 335 325 308 290 276 273 270 272 276 276 275 273 273
118 86 71 231 10 30 249 305 192 223 256 231 249 270 302 94 98 119 110 61 21 7 356 348 343 345 347 347 343 334 327 323 322 318 305 286 275 270 268 261 255 260 267 270
57 118 83 117 181 288 310 194 138 149 322 240 228 264 288 115 122 127 15 345 338 343 341 337 336 337 340 342 343 340 332 324 318 317 310 297 280 273 269 264 260 253 242 239
86 79 108 83 130 209 242 208 90 121 338 272 208 178 145 139 92 264 356 330 315 308 321 320 320 325 326 330 335 338 340 335 325 318 312 305 292 278 268 263 259 253 241 226
102 36 138 156 223 287 246 224 1 82 222 146 134 152 164 171 190 248 319 316 310 305 305 308 310 321 328 328 328 333 334 336 334 326 318 311 303 288 269 257 251 242 237 235
157 143 179 105 80 276 181 100 160 190 138 102 121 277 272 283 303 295 304 307 306 307 307 304 297 309 316 314 315 323 329 332 335 335 326 317 310 301 283 265 248 224 237 242
207 178 175 183 210 252 195 214 173 141 156 296 298 290 285 289 295 299 301 297 298 296 302 300 297 302 308 302 301 309 315 321 329 336 333 327 336 337 296 247 221 202 209 238
233 182 191 112 233 234 235 239 254 254 268 294 298 292 299 302 300 297 294 293 288 293 294 297 293 295 298 288 287 299 303 308 329 346 346 5 350 240 222 238 257 271 263 259
197 149 180 259 275 273 267 256 269 279 287 281 301 301 303 303 301 305 305 301 300 301 298 296 291 294 291 272 270 281 287 278 289 303 292 266 280 278 266 264 276 285 283 285
189 186 172 212 204 199 223 301 297 289 292 299 303 303 305 303 301 300 294 297 299 302 298 293 287 289 290 273 268 268 274 277 269 267 272 267 261 262 270 268 265 267 273 273